CW2026 Weather Reports


time (UTC)temp
C
wind
direction
speed
KPH
gust
KPH
rain 1hr
cm
rain 24hr
cm
rain mn
cm
humidity
%
barometer
mb
20260505153028 22 188 12.9 33.8 0.00 0.08 0.00 45 1007.8
20260505151534 22 212 6.4 33.8 0.00 0.08 0.00 47 1007.8
20260505124534 13 176 4.8 17.7 0.00 0.08 0.00 72 1008.7
20260505123026 13 163 6.4 14.5 0.00 0.08 0.00 73 1008.7
20260505121519 12 186 0.0 16.1 0.00 0.08 0.00 77 1008.7
20260505120027 11 202 1.6 12.9 0.00 0.08 0.00 80 1008.8
20260505114525 10 181 1.6 12.9 0.00 0.08 0.00 84 1008.8
20260505113038 9 205 4.8 14.5 0.00 0.08 0.00 87 1008.8
20260505111535 8 199 3.2 11.3 0.00 0.08 0.00 90 1008.9
20260505101534 6 191 1.6 8.0 0.00 0.08 0.00 93 1008.6
20260505100021 6 198 0.0 4.8 0.00 0.08 0.00 94 1008.6
20260505094526 5 198 0.0 4.8 0.00 0.08 0.00 94 1008.6
20260505093034 5 198 0.0 0.0 0.00 0.08 0.00 94 1008.4
20260505091514 5 192 0.0 0.0 0.00 0.08 0.00 94 1008.2
20260505090021 5 193 0.0 0.0 0.00 0.08 0.00 94 1008.2
20260505084528 5 193 0.0 3.2 0.00 0.08 0.00 94 1008.3
20260505083025 5 192 0.0 3.2 0.00 0.08 0.00 94 1008.1
20260505081512 5 194 0.0 6.4 0.00 0.08 0.00 94 1008.3
20260505080024 5 193 0.0 3.2 0.00 0.08 0.00 94 1008.3
20260505074519 5 185 0.0 1.6 0.00 0.08 0.00 93 1008.6
20260505073023 6 188 0.0 0.0 0.00 0.08 0.00 93 1008.5
20260505071526 6 186 0.0 0.0 0.00 0.08 0.00 93 1008.6
20260505070022 6 186 0.0 0.0 0.00 0.08 0.00 94 1008.4
20260505064519 6 186 0.0 0.0 0.00 0.08 0.00 94 1008.3
20260505063021 6 186 0.0 0.0 0.00 0.08 0.00 94 1008.3
20260505061523 6 188 0.0 8.0 0.00 0.08 0.00 94 1008.4
20260505060009 6 159 1.6 8.0 0.00 0.08 0.00 93 1008.2
20260505054513 6 165 0.0 3.2 0.00 0.08 0.00 94 1008.3
20260505053007 7 360 0.0 0.0 0.00 0.08 0.00 91 1008.3
20260505051505 7 360 0.0 0.0 0.00 0.08 0.00 93 1008.1
20260505041520 6 273 0.0 0.0 0.00 0.08 0.00 93 1008.5
20260505040011 6 273 0.0 0.0 0.00 0.08 0.00 93 1008.3
20260505034510 7 273 0.0 0.0 0.00 0.08 0.08 92 1008.6
20260505033015 7 273 0.0 4.8 0.00 0.08 0.08 92 1008.6
20260505031520 7 175 0.0 0.0 0.00 0.08 0.08 91 1008.8
20260505030020 7 175 0.0 1.6 0.00 0.08 0.08 91 1008.5
20260505024508 7 178 0.0 0.0 0.00 0.08 0.08 91 1008.6
20260505023013 6 178 1.6 14.5 0.00 0.08 0.08 92 1008.6
20260505021514 6 298 0.0 0.0 0.00 0.08 0.08 91 1008.1
20260505020031 6 298 0.0 0.0 0.00 0.08 0.08 91 1008.2
20260505014523 7 282 0.0 0.0 0.00 0.08 0.08 89 1008.1
20260505013006 7 281 0.0 0.0 0.00 0.08 0.08 89 1008.1
20260505011512 8 281 0.0 0.0 0.00 0.08 0.08 88 1007.9
20260505010018 8 281 0.0 0.0 0.00 0.08 0.08 87 1007.8
20260505004522 9 281 0.0 0.0 0.00 0.08 0.08 84 1007.8
20260505003026 10 281 0.0 0.0 0.00 0.08 0.08 82 1007.4
20260505001508 10 281 0.0 0.0 0.00 0.08 0.08 81 1007.1
20260505000014 10 281 0.0 0.0 0.00 0.08 0.08 80 1006.9
20260504234519 11 281 0.0 0.0 0.00 0.08 0.08 77 1006.5
20260504233022 11 281 0.0 0.0 0.00 0.08 0.08 75 1006.4
20260504231528 11 281 0.0 3.2 0.00 0.08 0.08 75 1006.2
20260504230012 12 282 0.0 9.7 0.00 0.08 0.08 74 1006.0
20260504224518 12 278 1.6 12.9 0.00 0.08 0.08 73 1005.8
20260504223020 12 323 1.6 19.3 0.00 0.08 0.08 72 1005.6
20260504221528 12 296 1.6 17.7 0.00 0.08 0.08 70 1005.5
20260504220041 12 313 0.0 16.1 0.00 0.08 0.08 71 1005.6
20260504214528 12 266 11.3 20.9 0.00 0.08 0.08 70 1005.3
20260504213016 12 330 4.8 25.7 0.00 0.08 0.08 68 1005.2
20260504211528 13 249 3.2 16.1 0.00 0.08 0.08 68 1004.9
20260504210026 12 286 3.2 20.9 0.00 0.08 0.08 70 1004.9
20260504204537 12 262 3.2 19.3 0.00 0.08 0.08 70 1004.8
20260504203029 12 292 1.6 12.9 0.00 0.08 0.08 71 1004.6
20260504201518 12 306 0.0 11.3 0.00 0.08 0.08 75 1004.8
20260504200024 12 313 1.6 12.9 0.00 0.08 0.08 76 1004.8
20260504194527 12 279 3.2 19.3 0.00 0.10 0.08 74 1004.7
20260504193003 12 284 8.0 19.3 0.00 0.10 0.08 76 1004.8
20260504191505 11 290 3.2 17.7 0.00 0.13 0.08 81 1004.7
20260504190011 10 287 3.2 14.5 0.03 0.13 0.08 85 1004.9
20260504184522 10 248 1.6 12.9 0.08 0.15 0.08 89 1005.1
20260504183010 10 277 0.0 11.3 0.08 0.18 0.08 88 1005.0
20260504181511 9 304 1.6 11.3 0.08 0.20 0.08 89 1005.3
20260504180010 10 298 8.0 24.1 0.05 0.23 0.05 83 1005.4
20260504174512 12 287 14.5 37.0 0.00 0.20 0.00 69 1005.2
20260504173008 12 300 11.3 25.7 0.00 0.28 0.00 60 1004.2
20260504171512 14 266 6.4 24.1 0.00 0.30 0.00 48 1004.0